Time,TemperatureF,DewpointF,PressureIn,WindDirection,WindDirectionDegrees,WindSpeedMPH,WindSpeedGustMPH,Humidity,HourlyPrecipIn,Conditions,Clouds,dailyrainin,SoftwareType,DateUTC
2013-03-25 00:03:00,33.0,31.0,29.65,ESE,119,0.0,0.0,93,0.01,,,0.03,,2013-03-25 04:03:00,
2013-03-25 00:12:00,33.0,31.0,29.65,ESE,119,0.0,0.0,93,0.01,,,0.03,,2013-03-25 04:12:00,
2013-03-25 00:22:00,33.0,31.0,29.64,ENE,69,1.0,7.0,94,0.01,,,0.03,,2013-03-25 04:22:00,
2013-03-25 00:33:00,33.0,31.0,29.64,ENE,69,1.0,3.0,94,0.01,,,0.03,,2013-03-25 04:33:00,
2013-03-25 00:43:00,33.0,31.0,29.64,ENE,69,1.0,3.0,94,0.01,,,0.03,,2013-03-25 04:43:00,
2013-03-25 00:52:00,33.0,31.0,29.64,ENE,68,0.0,5.0,94,0.01,,,0.03,,2013-03-25 04:52:00,
2013-03-25 01:03:00,33.0,32.0,29.62,ENE,64,0.0,5.0,98,0.00,,,0.03,,2013-03-25 05:03:00,
2013-03-25 01:12:00,33.0,32.0,29.62,ENE,64,0.0,5.0,98,0.00,,,0.03,,2013-03-25 05:12:00,
2013-03-25 01:22:00,33.0,31.0,29.60,ENE,69,1.0,7.0,94,0.00,,,0.03,,2013-03-25 05:22:00,
2013-03-25 01:32:00,33.0,31.0,29.60,East,85,1.0,5.0,94,0.00,,,0.03,,2013-03-25 05:32:00,
2013-03-25 01:42:00,33.0,31.0,29.60,East,85,1.0,5.0,94,0.00,,,0.03,,2013-03-25 05:42:00,
2013-03-25 01:52:00,33.0,31.0,29.60,ENE,76,1.0,4.0,94,0.00,,,0.03,,2013-03-25 05:52:00,
2013-03-25 02:02:00,33.0,31.0,29.59,ENE,74,3.0,8.0,94,0.00,,,0.03,,2013-03-25 06:02:00,
2013-03-25 02:12:00,33.0,31.0,29.59,ENE,74,3.0,8.0,94,0.00,,,0.03,,2013-03-25 06:12:00,
2013-03-25 02:22:00,33.0,31.0,29.58,ENE,67,1.0,7.0,94,0.00,,,0.03,,2013-03-25 06:22:00,
2013-03-25 02:32:00,33.0,31.0,29.57,ENE,74,0.0,4.0,93,0.00,,,0.03,,2013-03-25 06:32:00,
2013-03-25 02:42:00,33.0,31.0,29.57,ENE,74,0.0,4.0,93,0.00,,,0.03,,2013-03-25 06:42:00,
2013-03-25 02:53:00,33.0,31.0,29.57,ENE,70,1.0,4.0,93,0.00,,,0.03,,2013-03-25 06:53:00,
2013-03-25 03:02:00,32.0,30.0,29.56,ENE,67,0.0,5.0,93,0.00,,,0.03,,2013-03-25 07:02:00,
2013-03-25 03:12:00,32.0,30.0,29.56,ENE,67,0.0,5.0,93,0.00,,,0.03,,2013-03-25 07:12:00,
2013-03-25 03:22:00,32.0,30.0,29.56,ENE,65,0.0,0.0,93,0.00,,,0.03,,2013-03-25 07:22:00,
2013-03-25 03:32:00,32.0,30.0,29.55,ENE,65,0.0,4.0,94,0.00,,,0.03,,2013-03-25 07:32:00,
2013-03-25 03:42:00,32.0,30.0,29.55,ENE,65,0.0,4.0,94,0.00,,,0.03,,2013-03-25 07:42:00,
2013-03-25 03:53:00,32.0,30.0,29.56,ENE,64,0.0,0.0,94,0.00,,,0.03,,2013-03-25 07:53:00,
2013-03-25 04:03:00,32.0,30.0,29.58,NNW,341,0.0,2.0,94,0.02,,,0.05,,2013-03-25 08:03:00,
2013-03-25 04:12:00,32.0,30.0,29.58,NNW,341,0.0,2.0,94,0.02,,,0.05,,2013-03-25 08:12:00,
2013-03-25 04:23:00,31.0,29.0,29.58,NW,313,0.0,0.0,94,0.02,,,0.05,,2013-03-25 08:23:00,
2013-03-25 04:32:00,31.0,29.0,29.59,NW,309,0.0,0.0,94,0.03,,,0.06,,2013-03-25 08:32:00,
2013-03-25 04:43:00,31.0,29.0,29.59,NW,309,0.0,0.0,94,0.03,,,0.06,,2013-03-25 08:43:00,
2013-03-25 04:52:00,31.0,29.0,29.58,WNW,299,0.0,0.0,94,0.04,,,0.08,,2013-03-25 08:52:00,
2013-03-25 05:02:00,31.0,29.0,29.57,WNW,299,0.0,0.0,94,0.05,,,0.10,,2013-03-25 09:02:00,
2013-03-25 05:12:00,31.0,29.0,29.57,WNW,299,0.0,0.0,94,0.05,,,0.10,,2013-03-25 09:12:00,
2013-03-25 05:22:00,31.0,29.0,29.57,WNW,299,0.0,0.0,94,0.06,,,0.11,,2013-03-25 09:22:00,
2013-03-25 05:33:00,31.0,30.0,29.56,WNW,300,0.0,0.0,95,0.06,,,0.13,,2013-03-25 09:33:00,
2013-03-25 05:43:00,31.0,30.0,29.56,WNW,300,0.0,0.0,95,0.06,,,0.13,,2013-03-25 09:43:00,
2013-03-25 05:53:00,31.0,30.0,29.56,WNW,300,0.0,0.0,95,0.07,,,0.15,,2013-03-25 09:53:00,
2013-03-25 06:03:00,31.0,30.0,29.55,WNW,301,0.0,0.0,95,0.07,,,0.17,,2013-03-25 10:03:00,
2013-03-25 06:12:00,31.0,30.0,29.55,WNW,301,0.0,0.0,95,0.07,,,0.17,,2013-03-25 10:12:00,
2013-03-25 06:22:00,31.0,30.0,29.54,WNW,300,0.0,0.0,95,0.08,,,0.19,,2013-03-25 10:22:00,
2013-03-25 06:33:00,31.0,30.0,29.54,WNW,300,0.0,0.0,95,0.08,,,0.21,,2013-03-25 10:33:00,
2013-03-25 06:42:00,31.0,30.0,29.54,WNW,300,0.0,0.0,95,0.08,,,0.21,,2013-03-25 10:42:00,
2013-03-25 06:54:00,31.0,30.0,29.54,WNW,300,0.0,0.0,95,0.08,,,0.23,,2013-03-25 10:54:00,
2013-03-25 07:03:00,31.0,30.0,29.53,WNW,302,0.0,0.0,95,0.06,,,0.23,,2013-03-25 11:03:00,
2013-03-25 07:12:00,31.0,30.0,29.53,WNW,302,0.0,0.0,95,0.05,,,0.24,,2013-03-25 11:12:00,
2013-03-25 07:23:00,31.0,30.0,29.53,WNW,302,0.0,0.0,95,0.05,,,0.24,,2013-03-25 11:23:00,
2013-03-25 07:32:00,31.0,30.0,29.53,WNW,302,0.0,0.0,95,0.03,,,0.24,,2013-03-25 11:32:00,
2013-03-25 07:42:00,31.0,30.0,29.53,WNW,302,0.0,0.0,95,0.03,,,0.24,,2013-03-25 11:42:00,
2013-03-25 07:53:00,31.0,30.0,29.53,NW,305,0.0,0.0,95,0.02,,,0.25,,2013-03-25 11:53:00,
2013-03-25 08:02:00,31.0,30.0,29.53,NW,305,0.0,0.0,95,0.02,,,0.25,,2013-03-25 12:02:00,
2013-03-25 08:13:00,31.0,30.0,29.53,NW,305,0.0,0.0,95,0.02,,,0.25,,2013-03-25 12:13:00,
2013-03-25 08:23:00,31.0,30.0,29.53,NW,304,0.0,0.0,95,0.01,,,0.25,,2013-03-25 12:23:00,
2013-03-25 08:32:00,31.0,30.0,29.53,NW,305,0.0,0.0,95,0.02,,,0.26,,2013-03-25 12:32:00,
2013-03-25 08:43:00,31.0,30.0,29.53,NW,305,0.0,0.0,95,0.02,,,0.26,,2013-03-25 12:43:00,
2013-03-25 08:53:00,31.0,30.0,29.53,NW,306,0.0,0.0,95,0.01,,,0.26,,2013-03-25 12:53:00,
2013-03-25 09:02:00,31.0,30.0,29.52,North,10,0.0,0.0,95,0.02,,,0.27,,2013-03-25 13:02:00,
2013-03-25 09:13:00,31.0,30.0,29.52,North,10,0.0,0.0,95,0.02,,,0.27,,2013-03-25 13:13:00,
2013-03-25 09:23:00,32.0,31.0,29.52,North,11,0.0,0.0,96,0.02,,,0.27,,2013-03-25 13:23:00,
2013-03-25 09:32:00,32.0,31.0,29.51,NNE,32,0.0,0.0,96,0.01,,,0.27,,2013-03-25 13:32:00,
2013-03-25 09:43:00,32.0,31.0,29.51,NNE,32,0.0,0.0,96,0.01,,,0.27,,2013-03-25 13:43:00,
2013-03-25 09:53:00,32.0,31.0,29.51,NE,53,0.0,4.0,95,0.00,,,0.27,,2013-03-25 13:53:00,
2013-03-25 10:03:00,32.0,31.0,29.51,ENE,63,1.0,5.0,96,0.00,,,0.27,,2013-03-25 14:03:00,
2013-03-25 10:12:00,32.0,31.0,29.51,ENE,63,1.0,5.0,96,0.00,,,0.27,,2013-03-25 14:12:00,
2013-03-25 10:23:00,33.0,32.0,29.51,NE,45,0.0,6.0,95,0.00,,,0.27,,2013-03-25 14:23:00,
2013-03-25 10:32:00,33.0,32.0,29.51,NE,43,0.0,4.0,96,0.00,,,0.27,,2013-03-25 14:32:00,
2013-03-25 10:42:00,33.0,32.0,29.51,NE,43,0.0,4.0,96,0.00,,,0.27,,2013-03-25 14:42:00,
2013-03-25 10:53:00,33.0,32.0,29.51,NE,38,0.0,2.0,96,0.00,,,0.27,,2013-03-25 14:53:00,
2013-03-25 11:03:00,33.0,32.0,29.52,NE,38,0.0,5.0,95,0.00,,,0.27,,2013-03-25 15:03:00,
2013-03-25 11:13:00,33.0,32.0,29.52,NE,38,0.0,5.0,95,0.00,,,0.27,,2013-03-25 15:13:00,
2013-03-25 11:23:00,33.0,32.0,29.52,NE,34,0.0,0.0,95,0.00,,,0.27,,2013-03-25 15:23:00,
2013-03-25 11:33:00,33.0,32.0,29.52,NNE,25,0.0,0.0,95,0.00,,,0.27,,2013-03-25 15:33:00,
2013-03-25 11:42:00,33.0,32.0,29.52,NNE,25,0.0,0.0,95,0.00,,,0.27,,2013-03-25 15:42:00,
2013-03-25 11:53:00,33.0,32.0,29.52,NNE,25,0.0,0.0,96,0.01,,,0.28,,2013-03-25 15:53:00,
2013-03-25 12:03:00,33.0,32.0,29.52,NNE,19,0.0,0.0,95,0.02,,,0.29,,2013-03-25 16:03:00,
2013-03-25 12:12:00,33.0,32.0,29.52,NNE,19,0.0,0.0,95,0.02,,,0.29,,2013-03-25 16:12:00,
2013-03-25 12:23:00,33.0,32.0,29.52,NNE,19,0.0,0.0,95,0.02,,,0.29,,2013-03-25 16:23:00,
2013-03-25 12:33:00,33.0,32.0,29.52,WNW,299,2.0,7.0,95,0.02,,,0.29,,2013-03-25 16:33:00,
2013-03-25 12:43:00,33.0,32.0,29.52,WNW,299,2.0,7.0,95,0.02,,,0.29,,2013-03-25 16:43:00,
2013-03-25 12:53:00,33.0,32.0,29.52,WNW,299,0.0,6.0,96,0.01,,,0.29,,2013-03-25 16:53:00,
2013-03-25 13:03:00,34.0,33.0,29.52,WNW,287,2.0,5.0,95,0.00,,,0.29,,2013-03-25 17:03:00,
2013-03-25 13:12:00,34.0,33.0,29.52,WNW,287,2.0,5.0,95,0.00,,,0.29,,2013-03-25 17:12:00,
2013-03-25 13:24:00,34.0,33.0,29.52,WNW,292,4.0,7.0,95,0.00,,,0.29,,2013-03-25 17:24:00,
2013-03-25 13:33:00,34.0,33.0,29.52,WNW,290,2.0,7.0,95,0.00,,,0.29,,2013-03-25 17:33:00,
2013-03-25 13:43:00,34.0,33.0,29.52,WNW,290,2.0,7.0,95,0.00,,,0.29,,2013-03-25 17:43:00,
2013-03-25 13:53:00,34.0,33.0,29.52,WNW,290,2.0,6.0,95,0.00,,,0.29,,2013-03-25 17:53:00,
2013-03-25 14:03:00,35.0,34.0,29.52,West,280,1.0,8.0,95,0.00,,,0.29,,2013-03-25 18:03:00,
2013-03-25 14:13:00,35.0,34.0,29.52,West,280,1.0,8.0,95,0.00,,,0.29,,2013-03-25 18:13:00,
2013-03-25 14:23:00,35.0,34.0,29.52,West,280,2.0,7.0,95,0.00,,,0.29,,2013-03-25 18:23:00,
2013-03-25 14:33:00,35.0,34.0,29.52,WNW,283,4.0,9.0,95,0.00,,,0.29,,2013-03-25 18:33:00,
2013-03-25 14:43:00,35.0,34.0,29.52,WNW,283,4.0,9.0,95,0.00,,,0.29,,2013-03-25 18:43:00,
2013-03-25 14:53:00,35.0,33.0,29.51,West,273,1.0,7.0,94,0.00,,,0.29,,2013-03-25 18:53:00,
2013-03-25 15:03:00,35.0,33.0,29.52,WNW,284,3.0,8.0,94,0.00,,,0.29,,2013-03-25 19:03:00,
2013-03-25 15:13:00,35.0,33.0,29.52,WNW,284,3.0,8.0,94,0.00,,,0.29,,2013-03-25 19:13:00,
2013-03-25 15:23:00,35.0,33.0,29.52,WNW,296,0.0,8.0,94,0.00,,,0.29,,2013-03-25 19:23:00,
2013-03-25 15:33:00,35.0,33.0,29.51,WNW,293,3.0,7.0,94,0.00,,,0.29,,2013-03-25 19:33:00,
2013-03-25 15:43:00,35.0,33.0,29.51,WNW,293,3.0,7.0,94,0.00,,,0.29,,2013-03-25 19:43:00,
2013-03-25 15:52:00,35.0,33.0,29.51,NW,311,3.0,8.0,94,0.00,,,0.29,,2013-03-25 19:52:00,
2013-03-25 16:02:00,35.0,33.0,29.52,WNW,290,6.0,9.0,93,0.00,,,0.29,,2013-03-25 20:02:00,
2013-03-25 16:12:00,35.0,33.0,29.52,WNW,290,6.0,9.0,93,0.00,,,0.29,,2013-03-25 20:12:00,
2013-03-25 16:22:00,35.0,33.0,29.52,NW,325,4.0,10.0,93,0.00,,,0.29,,2013-03-25 20:22:00,
2013-03-25 16:32:00,35.0,33.0,29.52,WNW,292,0.0,10.0,93,0.00,,,0.29,,2013-03-25 20:32:00,
2013-03-25 16:42:00,35.0,33.0,29.52,WNW,292,0.0,10.0,93,0.00,,,0.29,,2013-03-25 20:42:00,
2013-03-25 16:52:00,36.0,34.0,29.52,WNW,287,1.0,7.0,93,0.00,,,0.29,,2013-03-25 20:52:00,
2013-03-25 17:03:00,36.0,34.0,29.53,NW,311,2.0,7.0,93,0.00,,,0.29,,2013-03-25 21:03:00,
2013-03-25 17:12:00,36.0,34.0,29.53,NW,311,2.0,7.0,93,0.00,,,0.29,,2013-03-25 21:12:00,
2013-03-25 17:22:00,36.0,34.0,29.54,WNW,298,2.0,7.0,92,0.00,,,0.29,,2013-03-25 21:22:00,
2013-03-25 17:33:00,36.0,34.0,29.55,WNW,292,0.0,7.0,92,0.00,,,0.29,,2013-03-25 21:33:00,
2013-03-25 17:43:00,36.0,34.0,29.55,WNW,292,0.0,7.0,92,0.00,,,0.29,,2013-03-25 21:43:00,
2013-03-25 17:52:00,35.0,33.0,29.56,WNW,290,1.0,10.0,92,0.00,,,0.29,,2013-03-25 21:52:00,
2013-03-25 18:03:00,35.0,33.0,29.56,WNW,292,4.0,7.0,92,0.00,,,0.29,,2013-03-25 22:03:00,
2013-03-25 18:13:00,35.0,33.0,29.56,WNW,292,4.0,7.0,92,0.00,,,0.29,,2013-03-25 22:13:00,
2013-03-25 18:23:00,35.0,33.0,29.57,WNW,303,0.0,4.0,92,0.00,,,0.29,,2013-03-25 22:23:00,
2013-03-25 18:33:00,35.0,33.0,29.57,WNW,302,0.0,0.0,93,0.00,,,0.29,,2013-03-25 22:33:00,
2013-03-25 18:42:00,35.0,33.0,29.57,WNW,302,0.0,0.0,93,0.00,,,0.29,,2013-03-25 22:42:00,
2013-03-25 18:52:00,35.0,33.0,29.58,WNW,303,0.0,2.0,93,0.00,,,0.29,,2013-03-25 22:52:00,
2013-03-25 19:03:00,35.0,33.0,29.59,WNW,303,0.0,0.0,93,0.01,,,0.30,,2013-03-25 23:03:00,
2013-03-25 19:12:00,35.0,33.0,29.59,WNW,303,0.0,0.0,93,0.01,,,0.30,,2013-03-25 23:12:00,
2013-03-25 19:23:00,34.0,32.0,29.60,WNW,303,0.0,3.0,93,0.02,,,0.31,,2013-03-25 23:23:00,
2013-03-25 19:32:00,34.0,32.0,29.60,WNW,303,0.0,3.0,94,0.02,,,0.31,,2013-03-25 23:32:00,
2013-03-25 19:43:00,34.0,32.0,29.60,WNW,303,0.0,3.0,94,0.02,,,0.31,,2013-03-25 23:43:00,
2013-03-25 19:53:00,34.0,32.0,29.61,WNW,303,0.0,0.0,94,0.02,,,0.31,,2013-03-25 23:53:00,
2013-03-25 20:02:00,34.0,32.0,29.62,WNW,303,0.0,0.0,94,0.01,,,0.31,,2013-03-26 00:02:00,
2013-03-25 20:12:00,34.0,32.0,29.62,WNW,303,0.0,0.0,94,0.01,,,0.31,,2013-03-26 00:12:00,
2013-03-25 20:22:00,34.0,32.0,29.63,WNW,303,0.0,0.0,94,0.01,,,0.32,,2013-03-26 00:22:00,
2013-03-25 20:32:00,34.0,32.0,29.63,WNW,300,0.0,4.0,94,0.01,,,0.32,,2013-03-26 00:32:00,
2013-03-25 20:42:00,34.0,32.0,29.63,WNW,300,0.0,4.0,94,0.01,,,0.32,,2013-03-26 00:42:00,
2013-03-25 20:52:00,34.0,32.0,29.64,WNW,298,2.0,6.0,94,0.01,,,0.32,,2013-03-26 00:52:00,
2013-03-25 21:02:00,34.0,32.0,29.65,WNW,298,0.0,4.0,94,0.01,,,0.32,,2013-03-26 01:02:00,
2013-03-25 21:12:00,34.0,32.0,29.65,WNW,298,0.0,4.0,94,0.01,,,0.32,,2013-03-26 01:12:00,
2013-03-25 21:23:00,34.0,33.0,29.65,WNW,298,0.0,0.0,95,0.00,,,0.31,,2013-03-26 01:23:00,
2013-03-25 21:32:00,34.0,33.0,29.65,West,276,0.0,7.0,95,0.00,,,0.31,,2013-03-26 01:32:00,
2013-03-25 21:42:00,34.0,33.0,29.65,West,276,0.0,7.0,95,0.00,,,0.31,,2013-03-26 01:42:00,
2013-03-25 21:53:00,34.0,33.0,29.66,West,276,0.0,5.0,95,0.00,,,0.31,,2013-03-26 01:53:00,
2013-03-25 22:02:00,34.0,33.0,29.67,West,276,0.0,3.0,95,0.00,,,0.31,,2013-03-26 02:02:00,
2013-03-25 22:12:00,34.0,33.0,29.67,West,276,0.0,3.0,95,0.00,,,0.31,,2013-03-26 02:12:00,
2013-03-25 22:22:00,34.0,33.0,29.67,West,277,0.0,0.0,95,0.00,,,0.30,,2013-03-26 02:22:00,
2013-03-25 22:32:00,34.0,33.0,29.68,West,277,0.0,0.0,95,0.00,,,0.30,,2013-03-26 02:32:00,
2013-03-25 22:42:00,34.0,33.0,29.68,West,277,0.0,0.0,95,0.00,,,0.30,,2013-03-26 02:42:00,
2013-03-25 22:52:00,34.0,33.0,29.68,West,276,0.0,0.0,95,0.00,,,0.30,,2013-03-26 02:52:00,
2013-03-25 23:02:00,34.0,33.0,29.68,West,277,0.0,0.0,95,0.00,,,0.30,,2013-03-26 03:02:00,
2013-03-25 23:12:00,34.0,33.0,29.68,West,277,0.0,0.0,95,0.00,,,0.30,,2013-03-26 03:12:00,
2013-03-25 23:22:00,34.0,33.0,29.68,West,277,0.0,0.0,95,0.00,,,0.30,,2013-03-26 03:22:00,
2013-03-25 23:33:00,33.0,32.0,29.68,West,277,0.0,0.0,95,0.00,,,0.30,,2013-03-26 03:33:00,
2013-03-25 23:42:00,33.0,32.0,29.68,West,277,0.0,0.0,95,0.00,,,0.30,,2013-03-26 03:42:00,
2013-03-25 23:53:00,33.0,32.0,29.68,West,277,0.0,4.0,95,0.00,,,0.30,,2013-03-26 03:53:00,